owner,sensor,date,latitude,longitude,vertical_datum,sea_water_speed,direction_of_sea_water_velocity,upward_sea_water_velocity,qcFlag
Anadarko,ioos:station:wmo:42377:1,2021-12-01T00:03:00Z,27.2925,-90.9681,21.3,87.9,0.2,-9999.0,'111111111,111111111,999999991'
Anadarko,ioos:station:wmo:42377:1,2021-12-01T00:23:00Z,27.2925,-90.9681,21.3,88.2,0.3,-9999.0,'111111111,111111111,999999991'
Anadarko,ioos:station:wmo:42377:1,2021-12-01T00:43:00Z,27.2925,-90.9681,21.3,88.9,0.1,-9999.0,'111111111,111111111,999999991'
Anadarko,ioos:station:wmo:42377:1,2021-12-01T01:03:00Z,27.2925,-90.9681,21.3,89.2,0.7,-9999.0,'111111111,111111111,999999991'
Anadarko,ioos:station:wmo:42377:1,2021-12-01T01:23:00Z,27.2925,-90.9681,21.3,89.1,1.5,-9999.0,'111111111,111111111,999999991'
Anadarko,ioos:station:wmo:42377:1,2021-12-01T01:43:00Z,27.2925,-90.9681,21.3,88.7,1.7,-9999.0,'111111111,111111111,999999991'
Anadarko,ioos:station:wmo:42377:1,2021-12-01T02:03:00Z,27.2925,-90.9681,21.3,89.3,1.6,-9999.0,'111111111,111111111,999999991'
Anadarko,ioos:station:wmo:42377:1,2021-12-01T02:23:00Z,27.2925,-90.9681,21.3,88.6,0.9,-9999.0,'111111111,111111111,999999991'
Anadarko,ioos:station:wmo:42377:1,2021-12-01T02:43:00Z,27.2925,-90.9681,21.3,88.1,0.3,-9999.0,'111111111,111111111,999999991'
Anadarko,ioos:station:wmo:42377:1,2021-12-01T03:03:00Z,27.2925,-90.9681,21.3,87.8,0.2,-9999.0,'111111111,111111111,999999991'
Anadarko,ioos:station:wmo:42377:1,2021-12-01T03:23:00Z,27.2925,-90.9681,21.3,87.4,359.4,-9999.0,'111111111,111441111,999999991'
Anadarko,ioos:station:wmo:42377:1,2021-12-01T03:43:00Z,27.2925,-90.9681,21.3,87.6,359.5,-9999.0,'111111111,111441111,999999991'
Anadarko,ioos:station:wmo:42377:1,2021-12-01T04:03:00Z,27.2925,-90.9681,21.3,87.2,358.8,-9999.0,'111111111,111111111,999999991'
Anadarko,ioos:station:wmo:42377:1,2021-12-01T04:23:00Z,27.2925,-90.9681,21.3,86.2,357.9,-9999.0,'111111111,111111111,999999991'
Anadarko,ioos:station:wmo:42377:1,2021-12-01T04:43:00Z,27.2925,-90.9681,21.3,88.0,357.9,-9999.0,'111111111,111111111,999999991'
Anadarko,ioos:station:wmo:42377:1,2021-12-01T05:03:00Z,27.2925,-90.9681,21.3,87.8,357.0,-9999.0,'111111111,111111111,999999991'
Anadarko,ioos:station:wmo:42377:1,2021-12-01T05:23:00Z,27.2925,-90.9681,21.3,87.7,357.0,-9999.0,'111111111,111111111,999999991'
Anadarko,ioos:station:wmo:42377:1,2021-12-01T05:43:00Z,27.2925,-90.9681,21.3,88.2,356.6,-9999.0,'111111111,111111111,999999991'
Anadarko,ioos:station:wmo:42377:1,2021-12-01T06:03:00Z,27.2925,-90.9681,21.3,88.1,355.5,-9999.0,'111111111,111111111,999999991'
Anadarko,ioos:station:wmo:42377:1,2021-12-01T06:23:00Z,27.2925,-90.9681,21.3,88.4,355.1,-9999.0,'111111111,111111111,999999991'
Anadarko,ioos:station:wmo:42377:1,2021-12-01T06:43:00Z,27.2925,-90.9681,21.3,88.4,354.2,-9999.0,'111111111,111111111,999999991'
Anadarko,ioos:station:wmo:42377:1,2021-12-01T07:03:00Z,27.2925,-90.9681,21.3,88.8,353.6,-9999.0,'111111111,111111111,999999991'
Anadarko,ioos:station:wmo:42377:1,2021-12-01T07:23:00Z,27.2925,-90.9681,21.3,88.7,353.1,-9999.0,'111111111,111111111,999999991'
Anadarko,ioos:station:wmo:42377:1,2021-12-01T07:43:00Z,27.2925,-90.9681,21.3,89.2,353.3,-9999.0,'111111111,111111111,999999991'
Anadarko,ioos:station:wmo:42377:1,2021-12-01T08:03:00Z,27.2925,-90.9681,21.3,89.3,353.1,-9999.0,'111111111,111111111,999999991'
Anadarko,ioos:station:wmo:42377:1,2021-12-01T08:23:00Z,27.2925,-90.9681,21.3,88.6,352.6,-9999.0,'111111111,111111111,999999991'
Anadarko,ioos:station:wmo:42377:1,2021-12-01T08:43:00Z,27.2925,-90.9681,21.3,87.3,354.3,-9999.0,'111111111,111111111,999999991'
Anadarko,ioos:station:wmo:42377:1,2021-12-01T09:03:00Z,27.2925,-90.9681,21.3,87.4,355.6,-9999.0,'111111111,111111111,999999991'
Anadarko,ioos:station:wmo:42377:1,2021-12-01T09:23:00Z,27.2925,-90.9681,21.3,87.0,354.3,-9999.0,'111111111,111111111,999999991'
Anadarko,ioos:station:wmo:42377:1,2021-12-01T09:43:00Z,27.2925,-90.9681,21.3,85.8,355.1,-9999.0,'111111111,111111111,999999991'
Anadarko,ioos:station:wmo:42377:1,2021-12-01T10:03:00Z,27.2925,-90.9681,21.3,85.0,355.4,-9999.0,'111111111,111111111,999999991'
Anadarko,ioos:station:wmo:42377:1,2021-12-01T10:23:00Z,27.2925,-90.9681,21.3,84.1,355.4,-9999.0,'111111111,111111111,999999991'
Anadarko,ioos:station:wmo:42377:1,2021-12-01T10:43:00Z,27.2925,-90.9681,21.3,83.6,354.2,-9999.0,'111111111,111111111,999999991'
Anadarko,ioos:station:wmo:42377:1,2021-12-01T11:03:00Z,27.2925,-90.9681,21.3,84.6,354.6,-9999.0,'111111111,111111111,999999991'
Anadarko,ioos:station:wmo:42377:1,2021-12-01T11:23:00Z,27.2925,-90.9681,21.3,85.3,352.9,-9999.0,'111111111,111111111,999999991'
Anadarko,ioos:station:wmo:42377:1,2021-12-01T11:43:00Z,27.2925,-90.9681,21.3,85.0,353.0,-9999.0,'111111111,111111111,999999991'
Anadarko,ioos:station:wmo:42377:1,2021-12-01T12:03:00Z,27.2925,-90.9681,21.3,86.5,355.1,-9999.0,'111111111,111111111,999999991'
Anadarko,ioos:station:wmo:42377:1,2021-12-01T12:23:00Z,27.2925,-90.9681,21.3,84.1,345.3,-9999.0,'111111111,111111111,999999991'
Anadarko,ioos:station:wmo:42377:1,2021-12-01T12:43:00Z,27.2925,-90.9681,21.3,86.9,351.5,-9999.0,'111111111,111111111,999999991'
Anadarko,ioos:station:wmo:42377:1,2021-12-01T13:03:00Z,27.2925,-90.9681,21.3,89.3,352.2,-9999.0,'111111111,111111111,999999991'
Anadarko,ioos:station:wmo:42377:1,2021-12-01T13:23:00Z,27.2925,-90.9681,21.3,88.3,349.8,-9999.0,'111111111,111111111,999999991'
Anadarko,ioos:station:wmo:42377:1,2021-12-01T13:43:00Z,27.2925,-90.9681,21.3,89.1,349.3,-9999.0,'111111111,111111111,999999991'
Anadarko,ioos:station:wmo:42377:1,2021-12-01T14:03:00Z,27.2925,-90.9681,21.3,90.1,338.8,-9999.0,'111111111,111111111,999999991'
Anadarko,ioos:station:wmo:42377:1,2021-12-01T14:23:00Z,27.2925,-90.9681,21.3,94.5,336.2,-9999.0,'111111111,111111111,999999991'
Anadarko,ioos:station:wmo:42377:1,2021-12-01T14:43:00Z,27.2925,-90.9681,21.3,94.7,336.2,-9999.0,'111111111,111111111,999999991'
Anadarko,ioos:station:wmo:42377:1,2021-12-01T15:03:00Z,27.2925,-90.9681,21.3,90.1,337.0,-9999.0,'111111111,111111111,999999991'
Anadarko,ioos:station:wmo:42377:1,2021-12-01T15:23:00Z,27.2925,-90.9681,21.3,87.1,339.2,-9999.0,'111111111,111111111,999999991'
Anadarko,ioos:station:wmo:42377:1,2021-12-01T15:43:00Z,27.2925,-90.9681,21.3,89.0,338.4,-9999.0,'111111111,111111111,999999991'
Anadarko,ioos:station:wmo:42377:1,2021-12-01T16:03:00Z,27.2925,-90.9681,21.3,86.4,339.6,-9999.0,'111111111,111111111,999999991'
Anadarko,ioos:station:wmo:42377:1,2021-12-01T16:23:00Z,27.2925,-90.9681,21.3,86.6,339.9,-9999.0,'111111111,111111111,999999991'
Anadarko,ioos:station:wmo:42377:1,2021-12-01T16:43:00Z,27.2925,-90.9681,21.3,88.2,339.0,-9999.0,'111111111,111111111,999999991'
Anadarko,ioos:station:wmo:42377:1,2021-12-01T17:03:00Z,27.2925,-90.9681,21.3,91.2,344.5,-9999.0,'111111111,111111111,999999991'
Anadarko,ioos:station:wmo:42377:1,2021-12-01T17:23:00Z,27.2925,-90.9681,21.3,93.1,344.7,-9999.0,'111111111,111111111,999999991'
Anadarko,ioos:station:wmo:42377:1,2021-12-01T17:43:00Z,27.2925,-90.9681,21.3,94.8,342.6,-9999.0,'111111111,111111111,999999991'
Anadarko,ioos:station:wmo:42377:1,2021-12-01T18:03:00Z,27.2925,-90.9681,21.3,97.6,337.5,-9999.0,'111111111,111111111,999999991'
Anadarko,ioos:station:wmo:42377:1,2021-12-01T18:23:00Z,27.2925,-90.9681,21.3,101.3,336.5,-9999.0,'111111111,111111111,999999991'
Anadarko,ioos:station:wmo:42377:1,2021-12-01T18:43:00Z,27.2925,-90.9681,21.3,100.9,346.1,-9999.0,'111111111,111111111,999999991'
Anadarko,ioos:station:wmo:42377:1,2021-12-01T19:03:00Z,27.2925,-90.9681,21.3,105.7,347.8,-9999.0,'111111111,111111111,999999991'
Anadarko,ioos:station:wmo:42377:1,2021-12-01T19:23:00Z,27.2925,-90.9681,21.3,103.6,339.4,-9999.0,'111111111,111111111,999999991'
Anadarko,ioos:station:wmo:42377:1,2021-12-01T19:43:00Z,27.2925,-90.9681,21.3,106.5,344.6,-9999.0,'111111111,111111111,999999991'
Anadarko,ioos:station:wmo:42377:1,2021-12-01T20:03:00Z,27.2925,-90.9681,21.3,107.8,342.8,-9999.0,'111111111,111111111,999999991'
Anadarko,ioos:station:wmo:42377:1,2021-12-01T20:23:00Z,27.2925,-90.9681,21.3,112.5,347.5,-9999.0,'111111111,111111111,999999991'
Anadarko,ioos:station:wmo:42377:1,2021-12-01T20:43:00Z,27.2925,-90.9681,21.3,114.5,348.6,-9999.0,'111111111,111111111,999999991'
Anadarko,ioos:station:wmo:42377:1,2021-12-01T21:03:00Z,27.2925,-90.9681,21.3,114.8,348.7,-9999.0,'111111111,111111111,999999991'
Anadarko,ioos:station:wmo:42377:1,2021-12-01T21:23:00Z,27.2925,-90.9681,21.3,113.6,348.6,-9999.0,'111111111,111111111,999999991'
Anadarko,ioos:station:wmo:42377:1,2021-12-01T21:43:00Z,27.2925,-90.9681,21.3,115.4,348.0,-9999.0,'111111111,111111111,999999991'
Anadarko,ioos:station:wmo:42377:1,2021-12-01T22:03:00Z,27.2925,-90.9681,21.3,118.9,350.0,-9999.0,'111111111,111111111,999999991'
Anadarko,ioos:station:wmo:42377:1,2021-12-01T22:23:00Z,27.2925,-90.9681,21.3,122.8,351.5,-9999.0,'111111111,111111111,999999991'
Anadarko,ioos:station:wmo:42377:1,2021-12-01T22:43:00Z,27.2925,-90.9681,21.3,123.4,353.5,-9999.0,'111111111,111111111,999999991'
Anadarko,ioos:station:wmo:42377:1,2021-12-01T23:03:00Z,27.2925,-90.9681,21.3,118.3,355.3,-9999.0,'111111111,111111111,999999991'
Anadarko,ioos:station:wmo:42377:1,2021-12-01T23:23:00Z,27.2925,-90.9681,21.3,112.9,354.1,-9999.0,'111111111,111111111,999999991'
Anadarko,ioos:station:wmo:42377:1,2021-12-01T23:43:00Z,27.2925,-90.9681,21.3,109.9,354.2,-9999.0,'111111111,111111111,999999991'
Anadarko,ioos:station:wmo:42377:1,2021-12-02T00:03:00Z,27.2925,-90.9681,21.3,112.0,358.0,-9999.0,'111111111,111111111,999999991'
Anadarko,ioos:station:wmo:42377:1,2021-12-02T00:23:00Z,27.2925,-90.9681,21.3,111.2,358.2,-9999.0,'111111111,111111111,999999991'
Anadarko,ioos:station:wmo:42377:1,2021-12-02T00:43:00Z,27.2925,-90.9681,21.3,110.1,359.6,-9999.0,'111111111,111441111,999999991'
Anadarko,ioos:station:wmo:42377:1,2021-12-02T01:03:00Z,27.2925,-90.9681,21.3,108.9,359.4,-9999.0,'111111111,111441111,999999991'
Anadarko,ioos:station:wmo:42377:1,2021-12-02T01:23:00Z,27.2925,-90.9681,21.3,108.5,358.6,-9999.0,'111111111,111111111,999999991'
Anadarko,ioos:station:wmo:42377:1,2021-12-02T01:43:00Z,27.2925,-90.9681,21.3,110.7,359.3,-9999.0,'111111111,111441111,999999991'
Anadarko,ioos:station:wmo:42377:1,2021-12-02T02:03:00Z,27.2925,-90.9681,21.3,108.3,357.7,-9999.0,'111111111,111111111,999999991'
Anadarko,ioos:station:wmo:42377:1,2021-12-02T02:23:00Z,27.2925,-90.9681,21.3,103.2,356.7,-9999.0,'111111111,111111111,999999991'
Anadarko,ioos:station:wmo:42377:1,2021-12-02T02:43:00Z,27.2925,-90.9681,21.3,98.0,357.1,-9999.0,'111111111,111111111,999999991'
Anadarko,ioos:station:wmo:42377:1,2021-12-02T03:03:00Z,27.2925,-90.9681,21.3,94.3,358.3,-9999.0,'111111111,111111111,999999991'
Anadarko,ioos:station:wmo:42377:1,2021-12-02T03:23:00Z,27.2925,-90.9681,21.3,92.7,359.1,-9999.0,'111111111,111441111,999999991'
Anadarko,ioos:station:wmo:42377:1,2021-12-02T03:43:00Z,27.2925,-90.9681,21.3,94.0,358.4,-9999.0,'111111111,111111111,999999991'
Anadarko,ioos:station:wmo:42377:1,2021-12-02T04:03:00Z,27.2925,-90.9681,21.3,91.6,358.3,-9999.0,'111111111,111111111,999999991'
Anadarko,ioos:station:wmo:42377:1,2021-12-02T04:23:00Z,27.2925,-90.9681,21.3,89.6,357.6,-9999.0,'111111111,111111111,999999991'
Anadarko,ioos:station:wmo:42377:1,2021-12-02T04:43:00Z,27.2925,-90.9681,21.3,88.8,357.7,-9999.0,'111111111,111111111,999999991'
Anadarko,ioos:station:wmo:42377:1,2021-12-02T05:03:00Z,27.2925,-90.9681,21.3,87.8,358.8,-9999.0,'111111111,111111111,999999991'
Anadarko,ioos:station:wmo:42377:1,2021-12-02T05:23:00Z,27.2925,-90.9681,21.3,88.7,358.8,-9999.0,'111111111,111111111,999999991'
Anadarko,ioos:station:wmo:42377:1,2021-12-02T05:43:00Z,27.2925,-90.9681,21.3,87.4,359.7,-9999.0,'111111111,111441111,999999991'
Anadarko,ioos:station:wmo:42377:1,2021-12-02T06:03:00Z,27.2925,-90.9681,21.3,87.9,359.5,-9999.0,'111111111,111441111,999999991'
Anadarko,ioos:station:wmo:42377:1,2021-12-02T06:23:00Z,27.2925,-90.9681,21.3,95.2,1.4,-9999.0,'111111111,111111111,999999991'
Anadarko,ioos:station:wmo:42377:1,2021-12-02T06:43:00Z,27.2925,-90.9681,21.3,104.7,5.9,-9999.0,'111111111,111111111,999999991'
Anadarko,ioos:station:wmo:42377:1,2021-12-02T07:03:00Z,27.2925,-90.9681,21.3,117.3,10.4,-9999.0,'111111111,111111111,999999991'
Anadarko,ioos:station:wmo:42377:1,2021-12-02T07:23:00Z,27.2925,-90.9681,21.3,127.3,12.4,-9999.0,'111111111,111111111,999999991'
Anadarko,ioos:station:wmo:42377:1,2021-12-02T07:43:00Z,27.2925,-90.9681,21.3,131.0,10.4,-9999.0,'111111111,111111111,999999991'
Anadarko,ioos:station:wmo:42377:1,2021-12-02T08:03:00Z,27.2925,-90.9681,21.3,129.2,9.2,-9999.0,'111111111,111111111,999999991'
Anadarko,ioos:station:wmo:42377:1,2021-12-02T08:23:00Z,27.2925,-90.9681,21.3,124.8,8.6,-9999.0,'111111111,111111111,999999991'
Anadarko,ioos:station:wmo:42377:1,2021-12-02T08:43:00Z,27.2925,-90.9681,21.3,121.5,7.6,-9999.0,'111111111,111111111,999999991'
Anadarko,ioos:station:wmo:42377:1,2021-12-02T09:03:00Z,27.2925,-90.9681,21.3,118.2,5.5,-9999.0,'111111111,111111111,999999991'
Anadarko,ioos:station:wmo:42377:1,2021-12-02T09:23:00Z,27.2925,-90.9681,21.3,113.9,3.5,-9999.0,'111111111,111111111,999999991'
Anadarko,ioos:station:wmo:42377:1,2021-12-02T09:43:00Z,27.2925,-90.9681,21.3,112.8,1.5,-9999.0,'111111111,111111111,999999991'
Anadarko,ioos:station:wmo:42377:1,2021-12-02T10:03:00Z,27.2925,-90.9681,21.3,111.9,0.6,-9999.0,'111111111,111111111,999999991'
Anadarko,ioos:station:wmo:42377:1,2021-12-02T10:23:00Z,27.2925,-90.9681,21.3,107.1,358.8,-9999.0,'111111111,111111111,999999991'
Anadarko,ioos:station:wmo:42377:1,2021-12-02T10:43:00Z,27.2925,-90.9681,21.3,106.7,359.7,-9999.0,'111111111,111441111,999999991'
Anadarko,ioos:station:wmo:42377:1,2021-12-02T11:03:00Z,27.2925,-90.9681,21.3,106.1,359.6,-9999.0,'111111111,111441111,999999991'
Anadarko,ioos:station:wmo:42377:1,2021-12-02T11:23:00Z,27.2925,-90.9681,21.3,105.4,359.3,-9999.0,'111111111,111441111,999999991'
Anadarko,ioos:station:wmo:42377:1,2021-12-02T11:43:00Z,27.2925,-90.9681,21.3,104.5,0.9,-9999.0,'111111111,111111111,999999991'
Anadarko,ioos:station:wmo:42377:1,2021-12-02T12:03:00Z,27.2925,-90.9681,21.3,107.9,0.6,-9999.0,'111111111,111111111,999999991'
Anadarko,ioos:station:wmo:42377:1,2021-12-02T12:23:00Z,27.2925,-90.9681,21.3,101.2,359.9,-9999.0,'111111111,111441111,999999991'
Anadarko,ioos:station:wmo:42377:1,2021-12-02T12:43:00Z,27.2925,-90.9681,21.3,103.6,357.7,-9999.0,'111111111,111111111,999999991'
Anadarko,ioos:station:wmo:42377:1,2021-12-02T13:03:00Z,27.2925,-90.9681,21.3,104.8,356.5,-9999.0,'111111111,111111111,999999991'
Anadarko,ioos:station:wmo:42377:1,2021-12-02T13:23:00Z,27.2925,-90.9681,21.3,102.8,353.0,-9999.0,'111111111,111111111,999999991'
Anadarko,ioos:station:wmo:42377:1,2021-12-02T13:43:00Z,27.2925,-90.9681,21.3,100.8,353.4,-9999.0,'111111111,111111111,999999991'
Anadarko,ioos:station:wmo:42377:1,2021-12-02T14:03:00Z,27.2925,-90.9681,21.3,99.4,346.7,-9999.0,'111111111,111111111,999999991'
Anadarko,ioos:station:wmo:42377:1,2021-12-02T14:23:00Z,27.2925,-90.9681,21.3,96.4,346.3,-9999.0,'111111111,111111111,999999991'
Anadarko,ioos:station:wmo:42377:1,2021-12-02T14:43:00Z,27.2925,-90.9681,21.3,100.8,347.6,-9999.0,'111111111,111111111,999999991'
Anadarko,ioos:station:wmo:42377:1,2021-12-02T15:03:00Z,27.2925,-90.9681,21.3,112.6,353.9,-9999.0,'111111111,111111111,999999991'
Anadarko,ioos:station:wmo:42377:1,2021-12-02T15:23:00Z,27.2925,-90.9681,21.3,120.5,357.6,-9999.0,'111111111,111111111,999999991'
Anadarko,ioos:station:wmo:42377:1,2021-12-02T15:43:00Z,27.2925,-90.9681,21.3,118.7,0.2,-9999.0,'111111111,111111111,999999991'
Anadarko,ioos:station:wmo:42377:1,2021-12-02T16:03:00Z,27.2925,-90.9681,21.3,118.7,0.7,-9999.0,'111111111,111111111,999999991'
Anadarko,ioos:station:wmo:42377:1,2021-12-02T16:23:00Z,27.2925,-90.9681,21.3,121.4,359.6,-9999.0,'111111111,111441111,999999991'
Anadarko,ioos:station:wmo:42377:1,2021-12-02T16:43:00Z,27.2925,-90.9681,21.3,122.0,359.1,-9999.0,'111111111,111441111,999999991'
Anadarko,ioos:station:wmo:42377:1,2021-12-02T17:03:00Z,27.2925,-90.9681,21.3,120.1,357.9,-9999.0,'111111111,111111111,999999991'
Anadarko,ioos:station:wmo:42377:1,2021-12-02T17:23:00Z,27.2925,-90.9681,21.3,120.0,359.6,-9999.0,'111111111,111441111,999999991'
Anadarko,ioos:station:wmo:42377:1,2021-12-02T17:43:00Z,27.2925,-90.9681,21.3,119.0,1.5,-9999.0,'111111111,111111111,999999991'
Anadarko,ioos:station:wmo:42377:1,2021-12-02T18:03:00Z,27.2925,-90.9681,21.3,119.5,2.9,-9999.0,'111111111,111111111,999999991'
Anadarko,ioos:station:wmo:42377:1,2021-12-02T18:23:00Z,27.2925,-90.9681,21.3,119.0,3.5,-9999.0,'111111111,111111111,999999991'
Anadarko,ioos:station:wmo:42377:1,2021-12-02T18:43:00Z,27.2925,-90.9681,21.3,121.1,2.1,-9999.0,'111111111,111111111,999999991'
Anadarko,ioos:station:wmo:42377:1,2021-12-02T19:03:00Z,27.2925,-90.9681,21.3,123.1,2.1,-9999.0,'111111111,111111111,999999991'
Anadarko,ioos:station:wmo:42377:1,2021-12-02T19:23:00Z,27.2925,-90.9681,21.3,125.8,2.0,-9999.0,'111111111,111111111,999999991'
Anadarko,ioos:station:wmo:42377:1,2021-12-02T19:43:00Z,27.2925,-90.9681,21.3,127.2,0.8,-9999.0,'111111111,111111111,999999991'
Anadarko,ioos:station:wmo:42377:1,2021-12-02T20:03:00Z,27.2925,-90.9681,21.3,124.6,359.9,-9999.0,'111111111,111441111,999999991'
Anadarko,ioos:station:wmo:42377:1,2021-12-02T20:23:00Z,27.2925,-90.9681,21.3,122.0,359.0,-9999.0,'111111111,111441111,999999991'
Anadarko,ioos:station:wmo:42377:1,2021-12-02T20:43:00Z,27.2925,-90.9681,21.3,121.0,359.0,-9999.0,'111111111,111111111,999999991'
Anadarko,ioos:station:wmo:42377:1,2021-12-02T21:03:00Z,27.2925,-90.9681,21.3,117.0,356.4,-9999.0,'111111111,111111111,999999991'
Anadarko,ioos:station:wmo:42377:1,2021-12-02T21:23:00Z,27.2925,-90.9681,21.3,115.9,357.1,-9999.0,'111111111,111111111,999999991'
Anadarko,ioos:station:wmo:42377:1,2021-12-02T21:43:00Z,27.2925,-90.9681,21.3,115.5,355.9,-9999.0,'111111111,111111111,999999991'
Anadarko,ioos:station:wmo:42377:1,2021-12-02T22:03:00Z,27.2925,-90.9681,21.3,115.9,354.2,-9999.0,'111111111,111111111,999999991'
Anadarko,ioos:station:wmo:42377:1,2021-12-02T22:23:00Z,27.2925,-90.9681,21.3,114.0,351.6,-9999.0,'111111111,111111111,999999991'
Anadarko,ioos:station:wmo:42377:1,2021-12-02T22:43:00Z,27.2925,-90.9681,21.3,110.9,350.0,-9999.0,'111111111,111111111,999999991'
Anadarko,ioos:station:wmo:42377:1,2021-12-02T23:03:00Z,27.2925,-90.9681,21.3,108.6,349.7,-9999.0,'111111111,111111111,999999991'
Anadarko,ioos:station:wmo:42377:1,2021-12-02T23:23:00Z,27.2925,-90.9681,21.3,106.1,347.5,-9999.0,'111111111,111111111,999999991'
Anadarko,ioos:station:wmo:42377:1,2021-12-02T23:43:00Z,27.2925,-90.9681,21.3,108.9,352.0,-9999.0,'111111111,111111111,999999991'
Anadarko,ioos:station:wmo:42377:1,2021-12-03T00:03:00Z,27.2925,-90.9681,21.3,108.6,353.9,-9999.0,'111111111,111111111,999999991'
Anadarko,ioos:station:wmo:42377:1,2021-12-03T00:23:00Z,27.2925,-90.9681,21.3,106.8,353.7,-9999.0,'111111111,111111111,999999991'
Anadarko,ioos:station:wmo:42377:1,2021-12-03T00:43:00Z,27.2925,-90.9681,21.3,106.2,352.6,-9999.0,'111111111,111111111,999999991'
Anadarko,ioos:station:wmo:42377:1,2021-12-03T01:03:00Z,27.2925,-90.9681,21.3,106.2,352.3,-9999.0,'111111111,111111111,999999991'
Anadarko,ioos:station:wmo:42377:1,2021-12-03T01:23:00Z,27.2925,-90.9681,21.3,105.1,351.7,-9999.0,'111111111,111111111,999999991'
Anadarko,ioos:station:wmo:42377:1,2021-12-03T01:43:00Z,27.2925,-90.9681,21.3,104.0,352.2,-9999.0,'111111111,111111111,999999991'
Anadarko,ioos:station:wmo:42377:1,2021-12-03T02:03:00Z,27.2925,-90.9681,21.3,103.0,352.1,-9999.0,'111111111,111111111,999999991'
Anadarko,ioos:station:wmo:42377:1,2021-12-03T02:23:00Z,27.2925,-90.9681,21.3,101.7,352.9,-9999.0,'111111111,111111111,999999991'
Anadarko,ioos:station:wmo:42377:1,2021-12-03T02:43:00Z,27.2925,-90.9681,21.3,103.3,354.2,-9999.0,'111111111,111111111,999999991'
Anadarko,ioos:station:wmo:42377:1,2021-12-03T03:03:00Z,27.2925,-90.9681,21.3,104.6,355.6,-9999.0,'111111111,111111111,999999991'
Anadarko,ioos:station:wmo:42377:1,2021-12-03T03:23:00Z,27.2925,-90.9681,21.3,105.5,355.6,-9999.0,'111111111,111111111,999999991'
Anadarko,ioos:station:wmo:42377:1,2021-12-03T03:43:00Z,27.2925,-90.9681,21.3,106.4,356.3,-9999.0,'111111111,111111111,999999991'
Anadarko,ioos:station:wmo:42377:1,2021-12-03T04:03:00Z,27.2925,-90.9681,21.3,105.1,357.2,-9999.0,'111111111,111111111,999999991'
Anadarko,ioos:station:wmo:42377:1,2021-12-03T04:23:00Z,27.2925,-90.9681,21.3,105.7,356.7,-9999.0,'111111111,111111111,999999991'
Anadarko,ioos:station:wmo:42377:1,2021-12-03T04:43:00Z,27.2925,-90.9681,21.3,107.6,356.6,-9999.0,'111111111,111111111,999999991'
Anadarko,ioos:station:wmo:42377:1,2021-12-03T05:03:00Z,27.2925,-90.9681,21.3,107.0,356.2,-9999.0,'111111111,111111111,999999991'
Anadarko,ioos:station:wmo:42377:1,2021-12-03T05:23:00Z,27.2925,-90.9681,21.3,107.9,355.1,-9999.0,'111111111,111111111,999999991'
Anadarko,ioos:station:wmo:42377:1,2021-12-03T05:43:00Z,27.2925,-90.9681,21.3,107.5,354.3,-9999.0,'111111111,111111111,999999991'
Anadarko,ioos:station:wmo:42377:1,2021-12-03T06:03:00Z,27.2925,-90.9681,21.3,107.4,354.1,-9999.0,'111111111,111111111,999999991'
Anadarko,ioos:station:wmo:42377:1,2021-12-03T06:23:00Z,27.2925,-90.9681,21.3,107.1,355.1,-9999.0,'111111111,111111111,999999991'
Anadarko,ioos:station:wmo:42377:1,2021-12-03T06:43:00Z,27.2925,-90.9681,21.3,106.4,357.0,-9999.0,'111111111,111111111,999999991'
Anadarko,ioos:station:wmo:42377:1,2021-12-03T07:03:00Z,27.2925,-90.9681,21.3,102.0,358.5,-9999.0,'111111111,111111111,999999991'
Anadarko,ioos:station:wmo:42377:1,2021-12-03T07:23:00Z,27.2925,-90.9681,21.3,105.9,0.6,-9999.0,'111111111,111111111,999999991'
Anadarko,ioos:station:wmo:42377:1,2021-12-03T07:43:00Z,27.2925,-90.9681,21.3,107.9,2.4,-9999.0,'111111111,111111111,999999991'
Anadarko,ioos:station:wmo:42377:1,2021-12-03T08:03:00Z,27.2925,-90.9681,21.3,102.1,359.9,-9999.0,'111111111,111441111,999999991'
Anadarko,ioos:station:wmo:42377:1,2021-12-03T08:23:00Z,27.2925,-90.9681,21.3,102.2,359.6,-9999.0,'111111111,111441111,999999991'
Anadarko,ioos:station:wmo:42377:1,2021-12-03T08:43:00Z,27.2925,-90.9681,21.3,98.5,2.7,-9999.0,'111111111,111111111,999999991'
Anadarko,ioos:station:wmo:42377:1,2021-12-03T09:03:00Z,27.2925,-90.9681,21.3,96.1,3.1,-9999.0,'111111111,111111111,999999991'
Anadarko,ioos:station:wmo:42377:1,2021-12-03T09:23:00Z,27.2925,-90.9681,21.3,93.6,1.7,-9999.0,'111111111,111111111,999999991'
Anadarko,ioos:station:wmo:42377:1,2021-12-03T09:43:00Z,27.2925,-90.9681,21.3,90.0,0.2,-9999.0,'111111111,111111111,999999991'
Anadarko,ioos:station:wmo:42377:1,2021-12-03T10:03:00Z,27.2925,-90.9681,21.3,89.1,358.8,-9999.0,'111111111,111111111,999999991'
Anadarko,ioos:station:wmo:42377:1,2021-12-03T10:23:00Z,27.2925,-90.9681,21.3,85.1,0.3,-9999.0,'111111111,111111111,999999991'
Anadarko,ioos:station:wmo:42377:1,2021-12-03T10:43:00Z,27.2925,-90.9681,21.3,82.6,359.6,-9999.0,'111111111,111441111,999999991'
Anadarko,ioos:station:wmo:42377:1,2021-12-03T11:03:00Z,27.2925,-90.9681,21.3,83.1,357.2,-9999.0,'111111111,111111111,999999991'
Anadarko,ioos:station:wmo:42377:1,2021-12-03T11:23:00Z,27.2925,-90.9681,21.3,77.9,0.2,-9999.0,'111111111,111111111,999999991'
Anadarko,ioos:station:wmo:42377:1,2021-12-03T11:43:00Z,27.2925,-90.9681,21.3,77.6,6.4,-9999.0,'111111111,111111111,999999991'
Anadarko,ioos:station:wmo:42377:1,2021-12-03T12:03:00Z,27.2925,-90.9681,21.3,77.9,8.6,-9999.0,'111111111,111111111,999999991'
Anadarko,ioos:station:wmo:42377:1,2021-12-03T12:23:00Z,27.2925,-90.9681,21.3,79.4,10.3,-9999.0,'111111111,111111111,999999991'
Anadarko,ioos:station:wmo:42377:1,2021-12-03T12:43:00Z,27.2925,-90.9681,21.3,76.6,10.9,-9999.0,'111111111,111111111,999999991'
Anadarko,ioos:station:wmo:42377:1,2021-12-03T13:03:00Z,27.2925,-90.9681,21.3,76.7,6.8,-9999.0,'111111111,111111111,999999991'